Ponca City, OK

4:12 PM CDT on October 21, 2019 (GMT -0500)
Ponca City Municipal

Weather History for KPNC - June, 2019

Change the Weather History Date:

Tuesday, June 11, 2019

  Actual Average Record
Temperature  
Mean Temperature 68 °F -  
Max Temperature 81 °F 89 °F 102 °F (1953)
Min Temperature 57 °F 63 °F 45 °F (1955)
Cooling Degree Days 4    
Growing Degree Days 18 (Base 50)    
Moisture  
Dew Point 52 °F    
Average Humidity 56    
Maximum Humidity 87    
Minimum Humidity 36    
Precipitation  
Precipitation 0.00 in - - ()
Sea Level Pressure  
Sea Level Pressure 30.09 in    
Wind  
Wind Speed 6 mph (SSE)    
Max Wind Speed 16 mph    
Max Gust Speed 24 mph    
Visibility 10 miles    
Events      
Averages and records for this station are not official NWS values.
T = Trace of Precipitation, MM = Missing Value Source: NWS Daily Summary

Daily Weather History Graph

Daily Weather History Graph

Search for Another Location

Airport or City:

Astronomy

Jun. 11, 2019 Rise Set
Actual Time 6:09 AM CDT 8:47 PM CDT
Civil Twilight 5:38 AM CDT 9:17 PM CDT
Nautical Twilight 5:00 AM CDT 9:55 PM CDT
Astronomical Twilight 4:18 AM CDT 10:38 PM CDT
Moon 2:58 PM CDT (6/11) 2:42 AM CDT (6/11)
Length of Visible Light 15h 39m
Length of Day
14h 38m
Waxing Gibbous, 66% of the Moon is Illuminated
Jun 11
Waxing Gibbous
Jun 17
Full
Jun 25
Last Quarter
Jul 2
New
Jul 9
First Quarter

Hourly Weather History & Observations

Time (CDT) Temp. Heat Index Dew Point Humidity Pressure Visibility Wind Dir Wind Speed Gust Speed Precip Events Conditions
12:53 AM 59.0 °F - 55.0 °F 87% 30.23 in 10.0 mi Calm Calm - N/A   Clear
1:53 AM 59.0 °F - 55.0 °F 87% 30.21 in 10.0 mi Calm Calm - N/A   Clear
2:53 AM 57.9 °F - 54.0 °F 87% 30.20 in 10.0 mi Calm Calm - N/A   Clear
3:53 AM 59.0 °F - 52.0 °F 78% 30.20 in 10.0 mi SSE 3.5 mph - N/A   Clear
4:53 AM 57.9 °F - 52.0 °F 81% 30.19 in 10.0 mi Calm Calm - N/A   Clear
5:53 AM 57.0 °F - 50.0 °F 77% 30.18 in 10.0 mi SE 6.9 mph - N/A   Clear
6:53 AM 59.0 °F - 51.1 °F 75% 30.18 in 10.0 mi SE 6.9 mph - N/A   Clear
7:53 AM 63.0 °F - 52.0 °F 67% 30.18 in 10.0 mi SE 5.8 mph - N/A   Clear
8:53 AM 68.0 °F - 50.0 °F 52% 30.18 in 10.0 mi SSE 11.5 mph - N/A   Clear
9:53 AM 72.0 °F - 50.0 °F 46% 30.18 in 10.0 mi SSE 11.5 mph - N/A   Clear
10:53 AM 73.9 °F - 46.9 °F 38% 30.15 in 10.0 mi SSE 12.7 mph 24.2 mph N/A   Clear
11:53 AM 75.9 °F - 48.9 °F 38% 30.12 in 10.0 mi South 12.7 mph 23.0 mph N/A   Clear
12:53 PM 78.1 °F - 50.0 °F 37% 30.09 in 10.0 mi SSE 15.0 mph 24.2 mph N/A   Clear
1:53 PM 79.0 °F - 51.1 °F 38% 30.06 in 10.0 mi SSW 13.8 mph 23.0 mph N/A   Clear
2:53 PM 80.1 °F - 52.0 °F 38% 30.03 in 10.0 mi SSW 8.1 mph 19.6 mph N/A   Clear
3:53 PM 80.1 °F - 51.1 °F 36% 29.99 in 10.0 mi South 8.1 mph 21.9 mph N/A   Clear
4:53 PM 80.1 °F - 51.1 °F 36% 29.98 in 10.0 mi South 8.1 mph - N/A   Mostly Cloudy
5:53 PM 80.1 °F 79.9 °F 53.1 °F 39% 29.96 in 10.0 mi South 8.1 mph - N/A   Mostly Cloudy
6:53 PM 79.0 °F - 53.1 °F 40% 29.95 in 10.0 mi South 6.9 mph - N/A   Scattered Clouds
7:53 PM 78.1 °F - 52.0 °F 40% 29.96 in 10.0 mi South 10.4 mph 16.1 mph N/A   Overcast
8:53 PM 73.9 °F - 55.0 °F 52% 29.96 in 10.0 mi SE 10.4 mph - N/A   Mostly Cloudy
9:53 PM 72.0 °F - 55.9 °F 57% 29.97 in 10.0 mi ESE 9.2 mph - N/A   Scattered Clouds
10:53 PM 72.0 °F - 55.9 °F 57% 29.96 in 10.0 mi South 16.1 mph 21.9 mph N/A   Partly Cloudy